Powrót do katalogu

SATCOM 3 DEB

LostHEO
NORAD 29004·DEBRIS·🇺🇸 United States

Wystrzelony Dec 7, 1979 z Cape Canaveral Space Force Station

Loading…

Następne Przeloty (najbliższe 24 godziny)

TLE

NieaktualneSource: Space-Track

Epoka: Aug 6, 2026, 00:49 UTC

1 29004U 79101G   26218.03408200 -.00000072  00000-0  00000+0 0  9998
2 29004   8.4787  83.1647 4866980 106.3483 290.9100  1.81216218135657

Śledź SATCOM 3 DEB w czasie rzeczywistym z AllMySat

Download on the App Store